User: anonymous   Login
Location: Unspecified
(0.0000°N, 0.0000°E)
Time: 00:40:45
(UTC+00:00)
Language:

AO-73 - Orbit

View from above orbital plane
View from above orbital plane
View from above satellite
View from above satellite

Ground track
Ground track

The orbit data is extracted from the following two-line orbital elements,

1 39444U 13066AE  19113.05477320  .00000206  00000-0  31745-4 0  9995
2 39444  97.5644 131.6195 0057277 212.4616 147.3071 14.81899954291549
Epoch (UTC): 23 April 2019 01:18:52
Eccentricity: 0.0057277
inclination: 97.5644°
perigee height: 583 km
apogee height: 663 km
right ascension of ascending node: 131.6195°
argument of perigee: 212.4616°
revolutions per day: 14.81899954
mean anomaly at epoch: 147.3071°
orbit number at epoch: 29154

The dashed part of the orbit path shows where the satellite is in the earth's shadow,  

DLR